星链-5739 (STARLINK-5739 )

导读 | 豆包AI

STARLINK-5739是美国太空探索技术公司SpaceX于2023年2月12日发射的星链卫星,归属Starlink星座组网序列,星链计划旨在搭建全球卫星互联网,为全球提供高速低延迟宽带通信服务。该卫星属于第二代星链卫星,运行于近地轨道,是星链大规模组网部署的组成单元,服务全球卫星互联网覆盖建设。

基本信息
目录编号:
55571
目录名称:
STARLINK-5739
国际标识:
2023-020C
轨道中心:
EARTH
卫星名称:
星链-5739
卫星全名:
星链-5739 (STARLINK-5739 )
卫星状态:
在轨 (已飞行1127 天)
发射日期:
2023-02-12 UTC
国别 :
美国 (US)
星等 :
--
轨道信息
数据来源 国际轨道数据
星历时间: 2026-03-15T03:05:48+0800
19小时前
查看轨道信息
半长轴: 6937.187km
偏心率: 0.0001039
轨道倾角: 43.007°
近地点辐角 267.413°
升交点赤经 337.220°
平近点角 92.660°
近地点: 558.329km
远地点: 559.771km
周期: 95.837分钟
每日圈数: 15.025456
详细信息
固有亮度:
5
最大亮度:
2.5
卫星平台:
Starlink v1.5
覆盖范围:
全球
运营商:
太空探索技术公司
运营商所在国:
美国
制造商(研发单位):
太空探索技术公司
制造商所在国:
美国
使用方式:
暂无
卫星简介
星链(Starlink)计划是由太空探索技术公司(SpaceX)提出的一个巨型低轨卫星互联网星座项目,计划在2019年至2024年间在太空搭建由约1.2万颗卫星组成的“星链”网络,其中1584颗将部署在地球上空550千米处的近地轨道,并从2020年开始工作。该卫星仍在工作。
2D轨道图
3D轨道图
轨道高度分析图
轨道倾角分析图
轨道综合分析图
查看轨道综合分析图